ONEWEB-0205, 48226

Orbit data source: Space-Track

ONEWEB-0205, 48226 is a payload satellite owned by One Web (NAA) (UK) in LEO that was launched on Sun, 25 Apr 2021 UTC via a SOYUZ-2-1B launch vehicle from the Vostochny Cosmodrome (VOSTO). Payload-class satellites include a variety of spacecraft equipped with specific instruments for various scientific and technological missions. These include communications satellites like Starlink; space stations such as the ISS; scientific satellites like the Hubble; Earth observation satellites from companies like Planet Labs, Umbra, and HawkEye 360; GPS; miniature CubeSats for education and research; and military/defense satellites.

Loading next visibility...
Identifier
48226, 2021-031S
Orbit
LEO
Country
Flag of UKUK
Related business
Manufacturer
One Web
Mission
Operational Commercial Communications
Bus & Motor
ARROW, Unknown motor
Mass
148 kg wet, ~140 kg dry
Launch date (UTC)
2021-04-25 (5 years ago)
Launch vehicle
SOYUZ-2-1B
Launch site
Vostochny Cosmodrome (VOSTO)
Object type
Payload
Rocket body
Debris
Shape & HBR
Trap Box + 2 Pan, 6.7 m
Radar Cross Section
3.464 m², Large (>1 m²)

Expand to show TLE details & history
Last TLE update: 2 days ago

TLE from 2 days ago
0 ONEWEB-0205
1 48226U 21031S   26171.41081250  .00000029  00000-0  43726-4 0  9994
2 48226  87.8977 289.0541 0002187 104.8734 255.2638 13.14501608248693
Epoch: 2026-06-20T09:51Z
TLE epoch observation values (Epoch: 2026-06-20T09:51:34.200Z)
Latitude
-0.00005°
Longitude
-127.46423°
Altitude
1,209.111 km
Speed
7.249 km/s
True Right ascension
19h 16m 12s
True Declination
0° 00' 00"
Sunlit
Object was in full shadow at epoch
Visualization orbit readout
Latitude
Unknown
Longitude
Unknown
Altitude
Unknown
Speed
Unknown
Apparent Right ascension
Unknown
Apparent Declination
Unknown
Sunlit
N/A
Visualization observer readout
Local Sidereal Time
21:42:15
Azimuth
Unknown
Elevation
Unknown
Doppler factor
Unknown
Orbital elements
Apogee altitude
1,204.567 km
Perigee altitude
1,201.251 km
Semi-major axis
7,581.046 km
Eccentricity
0.00022
Inclination
87.8977°
RAAN
289.0541°
Arg. of periapsis
104.8734°
True anomaly
255.23956°
Mean anomaly
255.2638°
Eccentric anomaly
255.25168°
Mean motion
3.28813 °/min
Orbital period
109.48 mins
BSTAR
0.000043726
Loading maneuver chart data...
Computing Atmospheric mass density...
Loading historical data...
Loading historical data...
Loading historical data...
Loading historical data...
Loading historical data...
Loading historical data...
Loading historical data...

Documentation

Showing up to 5 results
|